• în Republica Moldova
  • Lista ţărilor
  • Pe 7 zile
  • Temperatura apei
  • Hartă satelitară
  • Meteo pe hartă
  • Widget-uri
  • user-avatar
    Intrare

    Meteo pe oră la Barra

    Astăzi, 29 Iunie, Joi

    Timp Temperatura Precipitaţii Vânt Presiune Umiditate
    00:00 +21°C° 0,3 mm 3 m/s 752 mmHg 95%
    01:00 +21°C° 0,3 mm 3 m/s 752 mmHg 95%
    02:00 +21°C° 0,3 mm 3 m/s 752 mmHg 96%
    03:00 +21°C° 0,3 mm 3 m/s 752 mmHg 96%
    04:00 +21°C° 0 mm 3 m/s 752 mmHg 97%
    05:00 +21°C° 0,4 mm 3 m/s 752 mmHg 97%
    06:00 +21°C° 0,4 mm 4 m/s 752 mmHg 97%
    07:00 +21°C° 0,4 mm 4 m/s 752 mmHg 97%
    08:00 +21°C° 0,3 mm 4 m/s 752 mmHg 96%
    09:00 +21°C° 0,3 mm 4 m/s 752 mmHg 95%
    10:00 +21°C° 0 mm 4 m/s 753 mmHg 95%
    11:00 +22°C° 0,1 mm 4 m/s 752 mmHg 93%
    12:00 +22°C° 0,1 mm 3 m/s 752 mmHg 91%
    13:00 +24°C° 0,1 mm 3 m/s 752 mmHg 89%
    14:00 +24°C° 0,1 mm 3 m/s 752 mmHg 90%
    15:00 +22°C° 0,1 mm 3 m/s 751 mmHg 90%
    16:00 +22°C° 0,1 mm 3 m/s 751 mmHg 91%
    17:00 +23°C° 0,1 mm 2 m/s 751 mmHg 92%
    18:00 +21°C° 0,1 mm 2 m/s 751 mmHg 94%
    19:00 +20°C° 0,1 mm 2 m/s 752 mmHg 96%
    20:00 +20°C° 0 mm 2 m/s 752 mmHg 95%
    21:00 +20°C° 0 mm 2 m/s 752 mmHg 95%
    22:00 +21°C° 0 mm 2 m/s 752 mmHg 95%
    23:00 +20°C° 0 mm 2 m/s 752 mmHg 95%

    Mâine, 30 Iunie, Vineri

    Timp Temperatura Precipitaţii Vânt Presiune Umiditate
    00:00 +20°C° 0 mm 3 m/s 752 mmHg 96%
    01:00 +20°C° 0 mm 3 m/s 752 mmHg 96%
    02:00 +20°C° 0,2 mm 3 m/s 751 mmHg 96%
    03:00 +20°C° 0,2 mm 3 m/s 751 mmHg 95%
    04:00 +20°C° 0,2 mm 3 m/s 751 mmHg 95%
    05:00 +20°C° 0,1 mm 3 m/s 751 mmHg 95%
    06:00 +19°C° 0,1 mm 3 m/s 751 mmHg 95%
    07:00 +19°C° 0,1 mm 3 m/s 752 mmHg 95%
    08:00 +20°C° 0 mm 4 m/s 752 mmHg 90%
    09:00 +22°C° 0 mm 4 m/s 752 mmHg 85%
    10:00 +23°C° 0 mm 4 m/s 753 mmHg 80%
    11:00 +25°C° 0,1 mm 4 m/s 752 mmHg 76%
    12:00 +25°C° 0,1 mm 4 m/s 752 mmHg 72%
    13:00 +26°C° 0,1 mm 5 m/s 752 mmHg 67%
    14:00 +26°C° 0 mm 4 m/s 751 mmHg 70%
    15:00 +25°C° 0 mm 4 m/s 751 mmHg 72%
    16:00 +25°C° 0 mm 4 m/s 751 mmHg 74%
    17:00 +23°C° 0 mm 4 m/s 751 mmHg 78%
    18:00 +22°C° 0 mm 4 m/s 751 mmHg 82%
    19:00 +21°C° 0 mm 3 m/s 752 mmHg 85%
    20:00 +21°C° 0,1 mm 4 m/s 752 mmHg 88%
    21:00 +21°C° 0,1 mm 4 m/s 752 mmHg 90%
    22:00 +21°C° 0,1 mm 4 m/s 753 mmHg 92%
    23:00 +21°C° 0,3 mm 5 m/s 753 mmHg 93%

    Poimâine, 1 Iulie, Sâmbătă

    Timp Temperatura Precipitaţii Vânt Presiune Umiditate
    00:00 +21°C° 0,3 mm 5 m/s 752 mmHg 93%
    01:00 +21°C° 0,3 mm 6 m/s 752 mmHg 94%
    02:00 +21°C° 0,2 mm 6 m/s 752 mmHg 94%
    03:00 +20°C° 0,2 mm 6 m/s 752 mmHg 95%
    04:00 +20°C° 0,2 mm 6 m/s 751 mmHg 95%
    05:00 +20°C° 0,3 mm 5 m/s 752 mmHg 95%
    06:00 +20°C° 0,3 mm 5 m/s 752 mmHg 95%
    07:00 +20°C° 0,3 mm 5 m/s 752 mmHg 95%
    08:00 +19°C° 0,6 mm 5 m/s 753 mmHg 94%
    09:00 +19°C° 0,6 mm 5 m/s 753 mmHg 94%
    10:00 +19°C° 0,6 mm 5 m/s 754 mmHg 94%
    11:00 +19°C° 0,4 mm 5 m/s 753 mmHg 93%
    12:00 +19°C° 0,4 mm 5 m/s 753 mmHg 92%
    13:00 +20°C° 0,4 mm 5 m/s 752 mmHg 91%
    14:00 +20°C° 0,4 mm 5 m/s 752 mmHg 91%
    15:00 +20°C° 0,4 mm 5 m/s 752 mmHg 92%
    16:00 +20°C° 0,4 mm 5 m/s 751 mmHg 92%
    17:00 +20°C° 0,5 mm 5 m/s 752 mmHg 93%
    18:00 +21°C° 0,5 mm 5 m/s 752 mmHg 95%
    19:00 +21°C° 0,5 mm 5 m/s 752 mmHg 96%
    20:00 +21°C° 0,5 mm 5 m/s 753 mmHg 96%
    21:00 +21°C° 0,5 mm 6 m/s 753 mmHg 96%
    22:00 +21°C° 0,5 mm 6 m/s 753 mmHg 96%
    23:00 +21°C° 0,5 mm 5 m/s 753 mmHg 96%

    2 Iulie, Duminică

    Timp Temperatura Precipitaţii Vânt Presiune Umiditate
    00:00 +21°C° 0,5 mm 5 m/s 753 mmHg 96%
    01:00 +21°C° 0,5 mm 5 m/s 752 mmHg 97%
    02:00 +21°C° 0,5 mm 5 m/s 752 mmHg 97%
    03:00 +21°C° 0,5 mm 5 m/s 752 mmHg 97%
    04:00 +21°C° 0,5 mm 5 m/s 752 mmHg 97%
    05:00 +21°C° 0,5 mm 4 m/s 752 mmHg 97%
    06:00 +21°C° 0,5 mm 4 m/s 752 mmHg 97%
    07:00 +21°C° 0,5 mm 4 m/s 753 mmHg 98%
    08:00 +21°C° 0,4 mm 4 m/s 753 mmHg 96%
    09:00 +22°C° 0,4 mm 4 m/s 753 mmHg 95%
    10:00 +22°C° 0,4 mm 4 m/s 753 mmHg 94%
    11:00 +23°C° 0,4 mm 4 m/s 753 mmHg 93%
    12:00 +23°C° 0,4 mm 4 m/s 753 mmHg 91%
    13:00 +23°C° 0,4 mm 4 m/s 752 mmHg 90%
    14:00 +23°C° 0,3 mm 4 m/s 752 mmHg 90%
    15:00 +23°C° 0,3 mm 4 m/s 752 mmHg 90%
    16:00 +23°C° 0,3 mm 4 m/s 751 mmHg 90%
    17:00 +22°C° 0,4 mm 4 m/s 752 mmHg 92%
    18:00 +22°C° 0,4 mm 4 m/s 752 mmHg 95%
    19:00 +21°C° 0,4 mm 4 m/s 752 mmHg 97%
    20:00 +21°C° 0,5 mm 4 m/s 753 mmHg 97%
    21:00 +21°C° 0,5 mm 4 m/s 753 mmHg 98%
    22:00 +21°C° 0,5 mm 4 m/s 753 mmHg 98%
    23:00 +21°C° 0,7 mm 4 m/s 753 mmHg 98%

    3 Iulie, Luni

    Timp Temperatura Precipitaţii Vânt Presiune Umiditate
    00:00 +21°C° 0,7 mm 4 m/s 752 mmHg 98%
    01:00 +21°C° 0,7 mm 4 m/s 752 mmHg 98%
    02:00 +21°C° 0,8 mm 4 m/s 752 mmHg 98%
    03:00 +21°C° 0,8 mm 4 m/s 752 mmHg 98%
    04:00 +21°C° 0,8 mm 4 m/s 751 mmHg 98%
    05:00 +21°C° 0,6 mm 4 m/s 752 mmHg 98%
    06:00 +21°C° 0,6 mm 4 m/s 752 mmHg 98%
    07:00 +21°C° 0,6 mm 4 m/s 753 mmHg 98%
    08:00 +22°C° 0,7 mm 4 m/s 753 mmHg 97%
    09:00 +22°C° 0,7 mm 4 m/s 753 mmHg 97%
    10:00 +22°C° 0,7 mm 4 m/s 754 mmHg 96%
    11:00 +22°C° 0,7 mm 4 m/s 753 mmHg 96%
    12:00 +22°C° 0,7 mm 4 m/s 753 mmHg 96%
    13:00 +22°C° 0,7 mm 4 m/s 752 mmHg 96%
    14:00 +22°C° 0,3 mm 4 m/s 752 mmHg 96%
    15:00 +21°C° 0,3 mm 4 m/s 752 mmHg 96%
    16:00 +21°C° 0,3 mm 4 m/s 751 mmHg 96%
    17:00 +21°C° 0 mm 4 m/s 752 mmHg 96%
    18:00 +21°C° 0 mm 4 m/s 752 mmHg 96%
    19:00 +21°C° 0 mm 4 m/s 753 mmHg 97%
    20:00 +21°C° 0,1 mm 3 m/s 753 mmHg 97%
    21:00 +21°C° 0,1 mm 3 m/s 753 mmHg 96%
    22:00 +21°C° 0,1 mm 3 m/s 754 mmHg 96%
    23:00 +21°C° 0,2 mm 3 m/s 753 mmHg 96%

    4 Iulie, Marţi

    Timp Temperatura Precipitaţii Vânt Presiune Umiditate
    00:00 +21°C° 0,2 mm 3 m/s 753 mmHg 96%
    01:00 +21°C° 0,2 mm 3 m/s 753 mmHg 97%
    02:00 +20°C° 0,1 mm 3 m/s 753 mmHg 97%
    03:00 +20°C° 0,1 mm 3 m/s 752 mmHg 97%
    04:00 +20°C° 0,1 mm 3 m/s 752 mmHg 97%
    05:00 +20°C° 0 mm 3 m/s 752 mmHg 97%
    06:00 +20°C° 0 mm 3 m/s 753 mmHg 97%
    07:00 +20°C° 0 mm 3 m/s 753 mmHg 97%
    08:00 +21°C° 0 mm 3 m/s 753 mmHg 93%
    09:00 +22°C° 0 mm 3 m/s 753 mmHg 89%
    10:00 +24°C° 0 mm 3 m/s 754 mmHg 85%
    11:00 +24°C° 0 mm 3 m/s 753 mmHg 82%
    12:00 +25°C° 0 mm 3 m/s 752 mmHg 78%
    13:00 +25°C° 0 mm 3 m/s 752 mmHg 74%
    14:00 +25°C° 0 mm 3 m/s 752 mmHg 75%
    15:00 +25°C° 0 mm 3 m/s 751 mmHg 75%
    16:00 +25°C° 0 mm 3 m/s 751 mmHg 76%
    17:00 +22°C° 0 mm 3 m/s 752 mmHg 82%
    18:00 +21°C° 0 mm 3 m/s 752 mmHg 89%
    19:00 +19°C° 0 mm 2 m/s 753 mmHg 95%
    20:00 +19°C° 0 mm 2 m/s 753 mmHg 96%
    21:00 +19°C° 0 mm 2 m/s 753 mmHg 96%
    22:00 +19°C° 0 mm 2 m/s 753 mmHg 96%
    23:00 +19°C° 0 mm 2 m/s 753 mmHg 96%
    Arată mai mult